Weather History for Bangor, ME

Change the Weather History Date:

Thursday, October 20, 2011

  Actual Average Record
Temperature  
Mean Temperature 57 °F 46 °F  
Max Temperature 62 °F 56 °F 76 °F (1949)
Min Temperature 51 °F 35 °F 21 °F (2008)
Degree Days  
Heating Degree Days 8 19  
Month to date heating degree days 224 319  
Since 1 July heating degree days 355 591  
Cooling Degree Days 0 0  
Month to date cooling degree days 2 0  
Year to date cooling degree days 348 317  
Growing Degree Days 6 (Base 50)    
Moisture  
Dew Point 53 °F    
Average Humidity 92    
Maximum Humidity 100    
Minimum Humidity 83    
Precipitation  
Precipitation 0.37 in 0.13 in 3.05 in (1927)
Month to date precipitation 4.07 2.71  
Year to date precipitation 37.19 32.79  
Snow  
Snow 0.00 in 0.10 in 0.00 in (2002)
Month to date snowfall 0.0 0.1  
Since 1 July snowfall 0.0 0.1  
Since 1 September snowfall 0.0 0.1  
Snow Depth 0.00 in    
Sea Level Pressure  
Sea Level Pressure 29.63 in    
Wind  
Wind Speed 12 mph (East)    
Max Wind Speed 20 mph    
Max Gust Speed 25 mph    
Visibility 7 miles    
Events Rain    
T = Trace of Precipitation, MM = Missing Value Source: NWS Daily Summary

Daily Weather History Graph

Daily Weather History Graph

Search for Another Location

Airport:

Trip Planner

Search our weather history database for the weather conditions in past years. The results will help you decide how hot, cold, wet, or windy it might be!

Date:

Astronomy

Oct. 20, 2011 Rise Set
Actual Time 6:56 AM EDT 5:42 PM EDT
Civil Twilight 6:27 AM EDT 6:12 PM EDT
Nautical Twilight 5:53 AM EDT 6:46 PM EDT
Astronomical Twilight 5:19 AM EDT 7:20 PM EDT
Moon No Moon Rise 2:05 PM EDT (10/20)
Length of Visible Light 11h 45m
Length of Day
10h 45m
Last Quarter, 44% of the Moon is Illuminated
Oct 20
Last Quarter
Oct 26
New
Nov 2
First Quarter
Nov 10
Full
Nov 18
Last Quarter

Hourly Weather History & Observations

Time (EDT) Temp. Dew Point Humidity Pressure Visibility Wind Dir Wind Speed Gust Speed Precip Events Conditions
12:53 AM 51.1 °F 48.9 °F 92% 29.81 in 3.0 mi NE 15.0 mph 23.0 mph 0.03 in Rain Light Rain
1:38 AM 51.8 °F 48.2 °F 88% 29.79 in 2.5 mi NE 13.8 mph - 0.02 in Rain Light Rain
1:48 AM 51.8 °F 50.0 °F 94% 29.78 in 3.0 mi NNE 15.0 mph - 0.02 in Rain Light Rain
1:53 AM 51.1 °F 50.0 °F 96% 29.78 in 4.0 mi NE 12.7 mph - 0.02 in Rain Light Rain
2:53 AM 52.0 °F 50.0 °F 93% 29.76 in 3.0 mi NNE 11.5 mph - 0.01 in Rain Light Rain
3:21 AM 51.8 °F 50.0 °F 94% 29.77 in 2.5 mi NE 9.2 mph - 0.01 in Rain Light Rain
3:53 AM 52.0 °F 51.1 °F 97% 29.74 in 4.0 mi NE 10.4 mph 19.6 mph 0.09 in Rain Rain
4:53 AM 52.0 °F 50.0 °F 93% 29.72 in 10.0 mi NE 12.7 mph - 0.06 in Rain Light Rain
5:53 AM 52.0 °F 50.0 °F 93% 29.70 in 4.0 mi NE 12.7 mph - 0.04 in Rain Rain
6:53 AM 53.1 °F 51.1 °F 93% 29.69 in 10.0 mi NNE 6.9 mph - 0.05 in   Overcast
7:26 AM 53.6 °F 51.8 °F 94% 29.69 in 9.0 mi NE 8.1 mph - 0.01 in Rain Light Rain
7:53 AM 53.1 °F 51.1 °F 93% 29.68 in 10.0 mi NE 11.5 mph - 0.01 in   Overcast
8:53 AM 53.1 °F 51.1 °F 93% 29.68 in 10.0 mi NE 9.2 mph - 0.03 in   Overcast
9:24 AM 53.6 °F 51.8 °F 94% 29.69 in 10.0 mi NE 8.1 mph - 0.00 in Rain Light Rain
9:53 AM 53.1 °F 52.0 °F 96% 29.68 in 10.0 mi NE 8.1 mph - 0.00 in   Overcast
10:53 AM 54.0 °F 53.1 °F 97% 29.64 in 6.0 mi ENE 10.4 mph 18.4 mph 0.03 in Rain Light Rain
11:53 AM 55.4 °F 53.6 °F 94% 29.64 in 5.0 mi ENE 8.1 mph - N/A Rain Light Rain
12:18 PM 55.4 °F 53.6 °F 94% 29.59 in 9.0 mi NE 10.4 mph - 0.01 in Rain Light Rain
12:53 PM 55.9 °F 55.0 °F 97% 29.57 in 10.0 mi NE 11.5 mph - 0.01 in   Overcast
1:53 PM 57.0 °F 55.0 °F 93% 29.54 in 10.0 mi East 8.1 mph - N/A   Overcast
2:53 PM 57.9 °F 55.9 °F 93% 29.53 in 10.0 mi East 5.8 mph - N/A   Overcast
3:21 PM 57.2 °F 57.2 °F 100% 29.54 in 2.0 mi ESE 8.1 mph 16.1 mph 0.00 in Rain Light Rain
3:29 PM 57.2 °F 57.2 °F 100% 29.54 in 1.5 mi ESE 9.2 mph - 0.00 in Rain Light Rain
3:48 PM 57.2 °F 57.2 °F 100% 29.53 in 2.5 mi ESE 6.9 mph - 0.00 in   Light Drizzle
3:53 PM 59.0 °F 57.2 °F 94% 29.53 in 3.0 mi ESE 11.5 mph - N/A   Light Drizzle
4:53 PM 61.0 °F 59.0 °F 93% 29.52 in 8.0 mi SSE 11.5 mph - 0.01 in   Overcast
5:10 PM 62.6 °F 60.8 °F 94% 29.53 in 8.0 mi SSE 10.4 mph - N/A   Overcast
5:39 PM 60.8 °F 59.0 °F 94% 29.53 in 7.0 mi South 16.1 mph 25.3 mph N/A   Mostly Cloudy
5:53 PM 61.0 °F 57.0 °F 87% 29.53 in 8.0 mi South 16.1 mph 25.3 mph N/A   Mostly Cloudy
6:53 PM 57.9 °F 55.0 °F 90% 29.54 in 8.0 mi South 9.2 mph - N/A   Mostly Cloudy
7:37 PM 57.2 °F 53.6 °F 88% 29.55 in 10.0 mi South 11.5 mph - N/A   Partly Cloudy
7:53 PM 55.9 °F 53.1 °F 90% 29.55 in 8.0 mi South 12.7 mph - N/A   Clear
8:53 PM 55.9 °F 53.1 °F 90% 29.56 in 10.0 mi South 11.5 mph - N/A   Partly Cloudy
9:53 PM 55.9 °F 52.0 °F 87% 29.57 in 10.0 mi South 13.8 mph - N/A   Clear
10:53 PM 55.0 °F 51.1 °F 86% 29.58 in 10.0 mi South 10.4 mph - N/A   Clear
11:53 PM 55.0 °F 50.0 °F 83% 29.58 in 10.0 mi South 12.7 mph - N/A   Clear